Location: Rio Tanui
(39.9167°N, 8.5167°E)
Time: 01:29:55
(UTC+00:00)

SL-16 R/B - Pass Details

Date: 08 February 2023
Orbit: 842 x 845 km, 71.0° (Epoch: 01 April)

Event Time Altitude Azimuth Distance (km) Brightness Sun altitude
Rises 17:17:08 0° 231° (SW) 3,387 6.8 -5.2°
Reaches altitude 10° 17:19:51 10° 242° (WSW) 2,457 6.2 -5.7°
Maximum altitude 17:24:46 30° 303° (WNW) 1,461 4.0 -6.6°
Drops below altitude 10° 17:29:44 10° 4° (N) 2,471 4.5 -7.6°
Sets 17:32:30 0° 15° (NNE) 3,410 5.1 -8.1°
